Torna al catalogo

SL-16 DEB

AttivoLEO
NORAD 22804·DEBRIS·🇷🇺 Russia

Lanciato Sep 16, 1993 da Baikonur Cosmodrome

Loading…

Prossimi Passaggi (prossime 24 ore)

TLE

AggiornatoSource: Space-Track

Epoca: Sep 14, 2026, 06:39 UTC

1 22804U 93059C   26257.27776468  .00000085  00000-0  12054-3 0  9999
2 22804  70.9767  10.3005 0208951  13.6170  10.5416 13.72085941651005

Traccia SL-16 DEB in tempo reale con AllMySat

Download on the App Store